Estación Meteorológica Peña el Pijo (Robertgarden) [ 07/15/20 05:33:55 CEST ]

Fecha Hora Presion(HPa) Temp (°C) Humedad % Rocio (°C) Viento ( m/s) Direccion Lluvia 1Hora(mm) Lluvia 24H(mm) LLuvia Total(mm)
2020-May-08 01:09:12 1010.000 - - - - W     39.88
2020-May-08 02:09:35 1009.600 - - - - W     39.88
2020-May-08 03:09:11 1008.700 - - - - W     39.88
2020-May-08 04:09:08 1008.700 - - - - W     39.88
2020-May-08 05:09:03 1008.300 - - - - W     39.88
2020-May-08 06:08:53 1008.000 - - - - W     39.88
2020-May-08 07:09:31 1007.600 - - - - W     39.88
2020-May-08 08:09:25 1008.200 - - - - W     39.88
2020-May-08 09:10:07 1007.900 - - - - W     39.88
2020-May-08 10:09:50 1007.400 - - - - W     39.88
2020-May-08 11:09:17 1007.400 - - - - W     39.88
2020-May-08 12:09:07 1007.300 - - - - W     39.88
2020-May-08 13:09:15 1006.700 - - - - W     39.88
2020-May-08 14:09:37 1006.300 - - - - W     39.88
2020-May-08 15:09:20 1006.100 - - - - W     39.88
2020-May-08 16:09:05 1005.600 - - - - W     39.88
2020-May-08 17:08:51 1005.000 - - - - W     39.88
2020-May-08 18:09:07 1005.000 - - - - W     39.88
2020-May-08 19:09:21 1004.900 - - - - W     39.88
2020-May-08 20:09:15 1004.900 - - - - W     39.88
2020-May-08 21:09:08 1005.400 - - - - W     39.88
2020-May-08 22:09:31 1006.300 - - - - W     39.88
2020-May-08 23:09:23 1007.300 - - - - W     39.88

Temperatura Máxima:    Temperatura Mínima:
Presión Máxima:1010.000 Hpa    Presión Mínima:1004.900 Hpa


Volver